Kirksville Regional Airport
KIRK : now visible

Airfield :











YOU CAN JOIN US ON...

 
LOGIN :

Register | Disclaimer

   EN    FR    IT 

 









Legend :    VFR   Marginal VFR   IFR   Intensive IFR   Very Intensive IFR
Visi :
Ceiling :
>= 8 km
>= 3000ft
5 to 8 km
1000 to 3000 ft
1500m to 5 km
500 to 1000 ft
800 to 1500m
200 to 500 ft
< 800m
< 200 ft
Symbols :   Thunderstorms  Fog  Heavy snow  Heavy precipitations  Wind > 20 kt






- Airport Elevation : 966 ft
- IATA code : IRK


KIRK - Kirksville Regional

CURRENT METAR :
  • 282055Z AUTO 19009KT 10SM CLR 11/M03 A2981 RMK AO2 SLP104 T01061028 56020

EXPIRED METARs :
  • 281955Z AUTO 19010KT 10SM CLR 10/M02 A2982 RMK AO2 SLP107 T01001017
  • 281855Z AUTO 19007KT 10SM CLR 09/M01 A2984 RMK AO2 SLP114 T00941011

TAF N/A
KZKC FIR / North America



MET'MAP, your aeronautical weather chart ! - Copyright ORBIFLY December 2007 - Disclaimer

ORBIFLY MET'MAP TEAM :

Programming & Development : Alexandra Zaïnal
Original concept : Baudouin d'Aumeries
Technical & hardware support : Manuel Goepfert
Assistance : Marc-Olivier Méhu




SOURCES & CREDITS :

   NOAA       Earth
Advisory